Simultaneous Nadir Overpasses (SNOs) Predictions

Prediction of SNOs between NOAA-21 and PACE Satellite Orbit:

Table of predicted SNOs for the next 14.0 days since TLE Epoch: 10/5/2024
Index Date (NOAA-21) Time (NOAA-21) Lat,Lon (NOAA-21) SZA (NOAA-21 ) Date (PACE) Time (PACE) Lat,Lon (PACE) SZA (PACE ) Distance(km) Time Diff (sec)
1 10/06/2024 18:14:41 79.78,-130.37 86.95 10/06/2024 18:14:30 79.78,-130.52 86.97 3.04 11
2 10/08/2024 21:50:27 -79.88, -5.29 92.07 10/08/2024 21:50:35 -79.88, -5.28 92.08 0.34 8
3 10/11/2024 01:26:11 79.90, 120.60 88.76 10/11/2024 01:26:36 79.90, 120.55 88.76 1.18 25
4 10/11/2024 02:16:49 -79.71, -70.26 91.57 10/11/2024 02:15:39 -79.70, -70.23 91.55 0.78 70
5 10/13/2024 05:01:54 -79.94,-113.72 90.39 10/13/2024 05:02:35 -79.94,-113.73 90.40 0.20 41
6 10/13/2024 05:52:34 79.77, 55.20 89.34 10/13/2024 05:51:39 79.77, 55.26 89.35 1.22 55
7 10/15/2024 08:37:38 79.99, 11.83 90.49 10/15/2024 08:38:32 79.98, 11.97 90.45 2.76 54
8 10/15/2024 09:28:14 -79.74,-178.38 89.95 10/15/2024 09:27:34 -79.74,-178.50 89.92 2.45 40
9 10/17/2024 12:13:19 -80.00, 137.85 88.73 10/17/2024 12:14:26 -79.99, 137.90 88.76 1.22 67



Historial Predications of SNOs between NOAA-21 and PACE
